Flint, MI

9:24 PM EDT on July 21, 2018 (GMT -0400)
Bishop International

Weather History for KFNT - April, 2018

Change the Weather History Date:

Monday, April 16, 2018

  Actual Average Record
Temperature  
Mean Temperature 34 °F 47 °F  
Max Temperature 37 °F 58 °F 87 °F (2002)
Min Temperature 30 °F 36 °F 19 °F (2014)
Degree Days  
Heating Degree Days 31 18  
Month to date heating degree days 484 341  
Since 1 July heating degree days 6465 6386  
Cooling Degree Days 0 0  
Month to date cooling degree days 0 0  
Year to date cooling degree days 0 0  
Moisture  
Dew Point 31 °F    
Average Humidity 89    
Maximum Humidity 100    
Minimum Humidity 78    
Precipitation  
Precipitation 0.01 in 0.10 in 1.81 in (1972)
Month to date precipitation 2.97 1.54  
Year to date precipitation 9.96 6.56  
Snow  
Snow 0.20 in 0.00 in 2.50 in (1961)
Month to date snowfall 7.3 1.7  
Since 1 July snowfall 84.7 46.8  
Snow Depth T in    
Sea Level Pressure  
Sea Level Pressure 29.65 in    
Wind  
Wind Speed 14 mph (West)    
Max Wind Speed 25 mph    
Max Gust Speed 32 mph    
Visibility 5 miles    
Events Snow    
T = Trace of Precipitation, MM = Missing Value Source: NWS Daily Summary

Daily Weather History Graph

Daily Weather History Graph

Search for Another Location

Airport or City:

Astronomy

Apr. 16, 2018 Rise Set
Actual Time 6:51 AM EDT 8:18 PM EDT
Civil Twilight 6:21 AM EDT 8:48 PM EDT
Nautical Twilight 5:46 AM EDT 9:24 PM EDT
Astronomical Twilight 5:08 AM EDT 10:02 PM EDT
Moon 7:34 AM EDT (4/16) 9:06 PM EDT (4/16)
Length of Visible Light 14h 26m
Length of Day
13h 27m
New Moon, 0% of the Moon is Illuminated
Apr 16
New Moon
Apr 22
First Quarter
Apr 29
Full
May 7
Last Quarter
May 15
New

Hourly Weather History & Observations

Time (EDT) Temp. Windchill Dew Point Humidity Pressure Visibility Wind Dir Wind Speed Gust Speed Precip Events Conditions
12:22 AM 32.0 °F 28.7 °F 32.0 °F 100% 29.64 in 2.5 mi WSW 3.5 mph - N/A   Overcast
12:33 AM 32.0 °F 27.5 °F 32.0 °F 100% 29.63 in 3.0 mi West 4.6 mph - N/A   Overcast
12:50 AM 32.0 °F 27.5 °F 32.0 °F 100% 29.65 in 2.5 mi WSW 4.6 mph - 0.00 in   Overcast
12:53 AM 32.0 °F 28.7 °F 32.0 °F 100% 29.67 in 2.5 mi West 3.5 mph - 0.00 in   Overcast
1:00 AM 32.0 °F - 32.0 °F 100% 29.64 in 3.0 mi Calm Calm - N/A   Overcast
1:41 AM 32.0 °F 27.5 °F 32.0 °F 100% 29.63 in 2.0 mi West 4.6 mph - 0.01 in   Overcast
1:51 AM 32.0 °F 26.4 °F 32.0 °F 100% 29.63 in 1.2 mi West 5.8 mph - 0.01 in   Overcast
1:53 AM 32.0 °F 27.5 °F 32.0 °F 100% 29.65 in 1.2 mi West 4.6 mph - 0.01 in   Overcast
2:13 AM 32.0 °F 27.5 °F 32.0 °F 100% 29.62 in 0.8 mi West 4.6 mph - N/A   Mist
3:07 AM 32.0 °F 25.6 °F 32.0 °F 100% 29.60 in 0.8 mi West 6.9 mph - N/A   Mist
3:22 AM 32.0 °F 26.4 °F 32.0 °F 100% 29.62 in 1.0 mi WSW 5.8 mph - N/A   Mist
3:53 AM 32.0 °F 26.4 °F 32.0 °F 100% 29.64 in 1.2 mi WSW 5.8 mph - N/A   Overcast
4:08 AM 32.0 °F 26.4 °F 32.0 °F 100% 29.61 in 3.0 mi West 5.8 mph - N/A   Overcast
4:20 AM 32.0 °F 28.7 °F 32.0 °F 100% 29.62 in 1.8 mi West 3.5 mph - N/A   Overcast
4:33 AM 32.0 °F 26.4 °F 32.0 °F 100% 29.60 in 3.0 mi West 5.8 mph - N/A   Overcast
4:43 AM 32.0 °F 24.8 °F 32.0 °F 100% 29.61 in 2.0 mi West 8.1 mph - N/A   Overcast
4:53 AM 32.0 °F 24.8 °F 30.9 °F 96% 29.63 in 5.0 mi West 8.1 mph - N/A   Overcast
5:53 AM 32.0 °F 24.8 °F 32.0 °F 100% 29.61 in 10.0 mi West 8.1 mph - N/A   Overcast
6:00 AM 32.0 °F 24.8 °F 32.0 °F 100% 29.58 in 2.5 mi West 8.1 mph - N/A   Overcast
6:30 AM 32.0 °F 23.6 °F 30.9 °F 96% 29.59 in 1.5 mi West 10.4 mph - N/A   Overcast
6:53 AM 32.0 °F 24.2 °F 32.0 °F 100% 29.62 in 1.5 mi West 9.2 mph - N/A   Overcast
7:53 AM 32.0 °F 23.0 °F 30.9 °F 96% 29.63 in 1.5 mi West 11.5 mph - N/A   Overcast
8:53 AM 32.0 °F 22.5 °F 30.9 °F 96% 29.63 in 1.5 mi West 12.7 mph - N/A   Overcast
9:07 AM 32.0 °F 23.0 °F 30.9 °F 96% 29.61 in 4.0 mi West 11.5 mph - N/A   Overcast
9:53 AM 33.1 °F 24.4 °F 30.9 °F 92% 29.63 in 4.0 mi West 11.5 mph - N/A   Overcast
10:43 AM 34.0 °F 23.8 °F 30.9 °F 89% 29.61 in 10.0 mi West 16.1 mph - N/A   Overcast
10:53 AM 34.0 °F 24.6 °F 30.9 °F 89% 29.63 in 10.0 mi West 13.8 mph - N/A   Overcast
11:53 AM 34.0 °F 26.6 °F 30.9 °F 89% 29.64 in 10.0 mi West 9.2 mph - N/A   Overcast
12:21 PM 35.1 °F 26.4 °F 30.9 °F 85% 29.61 in 10.0 mi West 12.7 mph 20.7 mph N/A   Overcast
12:53 PM 35.1 °F 27.4 °F 30.9 °F 85% 29.63 in 10.0 mi West 10.4 mph - N/A   Overcast
1:06 PM 35.1 °F 26.9 °F 30.9 °F 85% 29.60 in 10.0 mi West 11.5 mph - N/A   Overcast
1:23 PM 36.0 °F 27.1 °F 30.9 °F 82% 29.60 in 10.0 mi West 13.8 mph - N/A   Overcast
1:53 PM 35.1 °F 25.2 °F 30.9 °F 85% 29.63 in 10.0 mi West 16.1 mph - N/A   Overcast
2:35 PM 34.0 °F 23.4 °F 32.0 °F 92% 29.60 in 5.0 mi West 17.3 mph - 0.00 in Snow Light Snow
2:49 PM 35.6 °F 27.1 °F 32.0 °F 87% 29.60 in 9.0 mi West 12.7 mph - N/A   Overcast
2:53 PM 35.1 °F 24.1 °F 32.0 °F 89% 29.60 in 6.0 mi West 19.6 mph 24.2 mph 0.00 in Snow Light Snow
3:00 PM 35.1 °F 25.5 °F 30.9 °F 85% 29.60 in 4.0 mi West 15.0 mph 24.2 mph 0.00 in Snow Light Snow
3:53 PM 35.1 °F 25.2 °F 30.0 °F 82% 29.64 in 10.0 mi West 16.1 mph - 0.00 in   Overcast
4:53 PM 34.0 °F 22.7 °F 30.9 °F 89% 29.66 in 5.0 mi West 19.6 mph - 0.00 in   Overcast
5:18 PM 34.0 °F 23.8 °F 30.9 °F 89% 29.65 in 3.0 mi West 16.1 mph 20.7 mph 0.00 in   Overcast
5:40 PM 34.0 °F 24.2 °F 32.0 °F 92% 29.66 in 6.0 mi West 15.0 mph - 0.00 in   Overcast
5:53 PM 33.1 °F 21.2 °F 30.9 °F 92% 29.69 in 6.0 mi West 20.7 mph - 0.00 in   Overcast
6:19 PM 33.1 °F 20.9 °F 30.0 °F 89% 29.67 in 10.0 mi WNW 21.9 mph 27.6 mph N/A   Overcast
6:53 PM 33.1 °F 22.6 °F 30.0 °F 89% 29.70 in 10.0 mi West 16.1 mph - N/A   Overcast
7:53 PM 32.0 °F 20.5 °F 28.0 °F 85% 29.73 in 10.0 mi WNW 18.4 mph - N/A   Overcast
8:37 PM 32.0 °F 20.5 °F 28.0 °F 85% 29.70 in 9.0 mi WNW 18.4 mph - 0.00 in Snow Light Snow
8:45 PM 32.0 °F 20.5 °F 27.0 °F 82% 29.71 in 7.0 mi West 18.4 mph - 0.00 in Snow Light Snow
8:53 PM 32.0 °F 20.5 °F 27.0 °F 82% 29.74 in 7.0 mi WNW 18.4 mph 27.6 mph 0.00 in Snow Light Snow
9:53 PM 30.9 °F 20.2 °F 27.0 °F 85% 29.76 in 4.0 mi WNW 15.0 mph - 0.00 in Snow Light Snow
10:21 PM 30.0 °F 19.1 °F 26.1 °F 85% 29.75 in 6.0 mi West 15.0 mph - 0.00 in Snow Light Snow
10:53 PM 30.0 °F 18.3 °F 24.1 °F 79% 29.77 in 10.0 mi West 17.3 mph - 0.00 in   Overcast
11:53 PM 30.0 °F 21.7 °F 24.1 °F 79% 29.77 in 10.0 mi West 9.2 mph - N/A   Overcast